Tracking 20719 objects as of 25-May-2020
HD Live streaming from Space Station
objects crossing your sky now

CZ-4 DEB

Track CZ-4 DEB now!
10-day predictions


NORAD ID: 28068
Int'l Code: 1999-057MY
Perigee: 685.6 km
Apogee: 816.9 km
Inclination: 98.7 °
Period: 99.7 minutes
Semi major axis: 7122 km
RCS: 0.0099 m2 (small)
Launch date: October 14, 1999
Source: People's Republic of China (PRC)
Launch site: Taiyaun Space Center, China (TSC)

Note: This is SATELLITE DEBRIS
aabbcc
Your satellite tracking list
Your tracking list is empty




NASA's NSSDC Master Catalog

Two Line Element Set (TLE):
1 28068U 99057MY  20144.92954173  .00000176  00000-0  62025-4 0  9998
2 28068  98.6582 137.9038 0092194  94.9139 266.2585 14.44372750899147
Source of the keplerian elements: AFSPC